Regional Weather Roundup
Issued by NWS Newport/Morehead, NC

Current Version | Previous Version | Graphics & Text | Print | Product List | Glossary Off
Versions: 1 2 3 4 5 6 7 8 9 10 11 12 13 14 15 16 17 18 19 20 21 22 23 24 25 26 27 28 29 30 31 32 33 34 35 36 37 38 39 40 41 42 43 44 45 46 47 48 49 50

000
ASUS42 KMHX 100012
RWRMHX
WEATHER ROUNDUP FOR EASTERN NORTH CAROLINA
NATIONAL WEATHER SERVICE NEWPORT/MOREHEAD CITY NC
700 PM EST FRI DEC 09 2016

NOTE: "FAIR" INDICATES FEW OR NO CLOUDS BELOW 12,000 FEET
WITH NO SIGNIFICANT WEATHER AND/OR OBSTRUCTIONS TO VISIBILITY

NCZ015>017-031-032-045>047-102-103-100100-
NORTH COAST

CITY           SKY/WX    TMP DP  RH WIND       PRES   REMARKS
EDENTON        CLEAR     35  21  57 CALM      30.43R
ELIZABETH CITY CLEAR     33  17  51 NW8       30.41R
KITTY HAWK     CLEAR     37  22  53 NW5       30.39R
MANTEO         CLEAR     38  18  45 N10G16    30.40R

$$

NCZ045>047-081-094-103-104-100100-
CENTRAL COAST

CITY           SKY/WX    TMP DP  RH WIND       PRES   REMARKS
FRISCO         CLEAR     39  21  48 VRB5      30.40R

$$

NCZ095-097-098-100-101-100100-
SOUTHERN COAST

CITY           SKY/WX    TMP DP  RH WIND       PRES   REMARKS
BEAUFORT       CLEAR     35  21  56 N6        30.42R
CEDAR ISLAND   NOT AVBL
JACKSONVILLE   PTCLDY    36  20  52 N6        30.42R
PINEY ISLAND   CLEAR    N/A N/A N/A N7        30.41R
WILMINGTON     CLEAR     36  23  59 N5        30.43R


$$

NCZ011>013-027>030-043-044-078>080-089-090>093-098-100100-
COASTAL PLAIN

CITY           SKY/WX    TMP DP  RH WIND       PRES   REMARKS
AHOSKIE        PTCLDY    31  18  59 CALM      30.44R
CLINTON        CLEAR     35  20  55 CALM      30.44R
ELIZABETHTOWN  CLEAR     35  23  62 CALM      30.43R
GOLDSBORO      CLEAR     35  15  43 NW5       30.42R
GREENVILLE     CLEAR     36  19  51 CALM      30.43R
HAVELOCK       CLEAR     37  20  50 NW7       30.43R
KENANSVILLE    CLEAR     32  21  64 N3        30.43R
KINSTON        CLEAR     32  19  59 NW3       30.44R
NEW BERN       CLEAR     34  20  56 NW3       30.43R
RICHLANDS      NOT AVBL
ROCKY MOUNT    CLEAR     30  20  66 NW3       30.44R
WASHINGTON     CLEAR     34  18  51 NW3       30.43R
WHITEVILLE     CLEAR     36  22  58 CALM      30.43R

$$

AMZ130-135-150-152-154-156-158-170-250-252-270-ANZ085-086-088-633-658-670-100100-
MARINE OBSERVATIONS

STATION/POSITION TIME  TEMP    WIND        PRES    WAVE   SWELL
                       AIR SEA DIR/SP/G            HT/PER HT/PER
                 (UTC) (F)     (DEG/KT/KT) (MB)    (FT/S) (FT/S)
CHESAPEAKE LIGHT NOT AVBL
64 E VA BEACH    2350   42 58  320/ 21/ 27 1027.3    7/ 6   2/16
DUCK             2348   39 52  300/ 11/ 14 1028.9
2 E DUCK         NOT AVBL
OREGON INLET     2348          340/  6/  9   N/A
13E OREGON INLT  NOT AVBL
HATTERAS CG      2348   41 54  330/ 13/ 19 1028.9
DIAMOND BUOY     2350   42 77  350/ 17/ 23 1029.0    5/10   5/10
CAPE LOOKOUT     2300   40     340/ 14/ 17 1029.0
BEAUFORT LAB     2348   40 52  350/  7/ 11 1028.7
30 SE NEW RVR IN 2308   45 69  350/ 14/ 21 1029.0
30 SE NEW RVR IN 2343      69                N/A     3/ 3
27 SE WRIGHTSVLE 2308   45 69  340/ 14/ 23 1028.7
5 SE WRIGHTSVLE  2308   41 61   10/ 16/ 23 1029.2
225 S CAPE HAT   2250   59 73  350/ 16/ 19 1025.1    6/ 6   3/ 7
41 SE CHARLESTON 2250   50 72  350/ 14/ 17 1028.2    4/ 6   2/ 7

$$



USA.gov is the U.S. government's official web portal to all federal, state and local government web resources and services.